Hourly Data Report for March 13, 2012

BAGOTVILLE A
QUEBEC

48°20'00.000" N
71°00'00.000" W
159.10 m
7060400
71727
YBG

Download Data

Hourly Data (March 2012)
Hourly Data Report for March 13, 2012
TIME
LST
Temp Definition
°C
Dew Point Definition
°C
Rel Hum Definition
%
Precip. Amount Definition
mm

Wind Dir Definition
10's deg

Wind Spd Definition
km/h
Visibility Definition
km
Stn Press Definition
kPa
Hmdx Definition


Wind Chill Definition


Weather Definition


00:00 -1.1 -5.2 74   11 11 24.1 100.10   -5 Cloudy
01:00 -1.3 -5.1 75   11 11 24.1 100.10   -5 Cloudy
02:00 -1.1 -5.5 72   9 17 24.1 100.03   -6 Cloudy
03:00 -0.1 -5.7 66   10 28 24.1 99.92   -6 Cloudy
04:00 0.4 -6.7 59   10 35 24.1 99.88     Cloudy
05:00 -0.6 -9.0 53   10 32 24.1 99.87   -7 Cloudy
06:00 -1.5 -9.7 54   10 39 32.2 99.88   -9 Cloudy
07:00 -2.6 -10.2 56   11 39 4.8 99.90   -11 Freezing Rain,Ice Pellets
08:00 -4.1 -7.8 75   11 37 24.1 99.91   -13 Freezing Rain,Ice Pellets
09:00 -4.6 -8.1 76   10 33 8.0 99.87   -13 Snow
10:00 -5.3 -7.2 86   11 37 0.4 99.80   -14 Snow,Blowing Snow
11:00 -5.5 -7.8 84   11 32 2.4 99.69   -14 Snow,Blowing Snow
12:00 -5.2 -8.5 78   12 39 8.0 99.62   -14 Freezing Rain,Ice Pellets
13:00 -5.3 -7.2 86   11 37 3.2 99.54   -14 Freezing Rain,Ice Pellets
14:00 -5.2 -7.5 84   11 37 8.0 99.57   -14 Freezing Rain,Ice Pellets
15:00 -5.0 -8.6 76   11 37 40.2 99.61   -14 Cloudy
16:00 -5.3 -9.0 75   11 39 40.2 99.63   -14 Cloudy
17:00 -5.4 -8.7 78   11 35 40.2 99.67   -14 Cloudy
18:00 -5.1 -8.4 78   11 32 32.2 99.71   -13 Cloudy
19:00 -5.0 -8.6 76   11 35 24.1 99.77   -14 Cloudy
20:00 -5.0 -7.2 85   11 30 19.3 99.79   -13 Snow Showers
21:00 -4.5 -6.9 83   10 32 16.1 99.81   -13 Freezing Rain,Ice Pellets
22:00 -4.0 -6.3 84   11 30 16.1 99.81   -12 Freezing Rain,Ice Pellets
23:00 -3.8 -6.7 80   10 33 9.7 99.78   -12 Freezing Rain,Ice Pellets

Notes on Data Quality.

Legend

  • E = Estimated
  • M = Missing
  • NA = Not Available*
  • [empty] = Indicates an unobserved value
Date modified: